Mackall AAF, NC

3:36 AM EST on November 21, 2017 (GMT -0500)
Mackall Army Air Field

Weather History for KHFF - March, 2014

Change the Weather History Date:

Sunday, March 2, 2014

  Actual Average Record
Temperature  
Mean Temperature 50 °F -  
Max Temperature 70 °F 54 °F 78 °F (2006)
Min Temperature 30 °F 36 °F 24 °F (2009)
Degree Days  
Heating Degree Days 15    
Moisture  
Dew Point 40 °F    
Average Humidity 62    
Maximum Humidity 99    
Minimum Humidity 35    
Precipitation  
Precipitation 0.00 in - - ()
Sea Level Pressure  
Sea Level Pressure 30.12 in    
Wind  
Wind Speed 6 mph (SW)    
Max Wind Speed 16 mph    
Max Gust Speed 22 mph    
Visibility 11 miles    
Events      
Averages and records for this station are not official NWS values.
T = Trace of Precipitation, MM = Missing Value Source: NWS Daily Summary

Daily Weather History Graph

Daily Weather History Graph

Search for Another Location

Airport or City:

Trip Planner

Search our weather history database for the weather conditions in past years. The results will help you decide how hot, cold, wet, or windy it might be!

Date:

Astronomy

Mar. 02, 2014 Rise Set
Actual Time 6:46 AM EST 6:14 PM EST
Civil Twilight 6:20 AM EST 6:39 PM EST
Nautical Twilight 5:51 AM EST 7:09 PM EST
Astronomical Twilight 5:22 AM EST 7:38 PM EST
Moon 7:20 AM EST (3/2) 8:02 PM EST (3/2)
Length of Visible Light 12h 19m
Length of Day
11h 28m
Waxing Crescent, 3% of the Moon is Illuminated
Mar 2
Waxing Crescent
Mar 8
First Quarter
Mar 16
Full
Mar 23
Last Quarter
Mar 30
New

Hourly Weather History & Observations

Time (EST) Temp. Windchill Dew Point Humidity Pressure Visibility Wind Dir Wind Speed Gust Speed Precip Events Conditions
12:56 AM 33.1 °F 30.0 °F 32.9 °F 99% 30.27 in 7.0 mi NNW 3.5 mph - N/A   Clear
1:56 AM 32.9 °F - 32.4 °F 98% 30.26 in 7.0 mi NNE 2.3 mph - N/A   Clear
2:56 AM 31.6 °F - 31.3 °F 99% 30.22 in 7.0 mi NNE 1.2 mph - N/A   Clear
3:56 AM 31.1 °F - 30.7 °F 99% 30.22 in 8.0 mi NW 2.3 mph - N/A   Clear
4:56 AM 31.1 °F - 30.2 °F 96% 30.24 in 8.0 mi SSW 2.3 mph - N/A   Clear
5:56 AM 30.6 °F - 29.8 °F 97% 30.22 in 7.0 mi Variable 1.2 mph - N/A   Clear
6:56 AM 30.2 °F - 29.8 °F 99% 30.25 in 6.0 mi NW 2.3 mph - N/A   Clear
7:56 AM 34.0 °F - 33.1 °F 96% 30.26 in 9.0 mi South 1.2 mph - N/A   Clear
8:56 AM 44.6 °F 43.1 °F 38.7 °F 80% 30.27 in 12.0 mi North 3.5 mph - N/A   Clear
9:56 AM 53.8 °F - 40.3 °F 60% 30.23 in 12.0 mi SW 6.9 mph - N/A   Clear
10:56 AM 58.3 °F - 41.4 °F 53% 30.20 in 12.0 mi SW 6.9 mph - N/A   Clear
11:56 AM 63.5 °F - 40.5 °F 43% 30.16 in 12.0 mi SSW 11.5 mph - N/A   Clear
12:56 PM 66.4 °F - 40.1 °F 38% 30.13 in 12.0 mi SSW 16.1 mph 21.9 mph N/A   Clear
1:23 PM 68.0 °F - 41.0 °F 37% 30.10 in 12.0 mi SW 12.7 mph 20.7 mph N/A   Clear
1:49 PM 68.0 °F - 41.0 °F 37% 30.08 in 12.0 mi WSW 13.8 mph - N/A   Clear
1:56 PM 67.6 °F - 41.5 °F 39% 30.09 in 12.0 mi SW 11.5 mph 18.4 mph N/A   Clear
2:56 PM 69.8 °F - 42.1 °F 37% 30.06 in 12.0 mi SSW 11.5 mph 20.7 mph N/A   Clear
3:03 PM 69.8 °F - 41.0 °F 35% 30.05 in 12.0 mi SW 12.7 mph 21.9 mph N/A   Clear
3:24 PM 69.8 °F - 41.0 °F 35% 30.04 in 12.0 mi SSW 15.0 mph 20.7 mph N/A   Clear
3:45 PM 69.8 °F - 42.8 °F 38% 30.04 in 12.0 mi WSW 11.5 mph 20.7 mph N/A   Clear
3:56 PM 70.3 °F - 41.7 °F 35% 30.04 in 12.0 mi SW 13.8 mph 19.6 mph N/A   Clear
4:56 PM 69.4 °F - 43.3 °F 39% 30.03 in 12.0 mi SSW 9.2 mph - N/A   Partly Cloudy
5:56 PM 66.4 °F - 45.0 °F 46% 30.02 in 12.0 mi South 6.9 mph - N/A   Clear
6:56 PM 62.2 °F - 45.7 °F 55% 30.01 in 12.0 mi South 10.4 mph - N/A   Clear
7:56 PM 61.2 °F - 45.9 °F 57% 30.00 in 12.0 mi South 8.1 mph - N/A   Clear
8:56 PM 60.8 °F - 46.0 °F 58% 29.99 in 12.0 mi South 10.4 mph - N/A   Clear
9:56 PM 60.1 °F - 46.2 °F 60% 29.99 in 12.0 mi SSW 10.4 mph - N/A   Partly Cloudy
10:56 PM 59.5 °F - 46.6 °F 62% 29.98 in 12.0 mi SSW 9.2 mph - N/A   Clear
11:56 PM 58.8 °F - 46.8 °F 64% 29.96 in 12.0 mi SSW 11.5 mph - N/A   Mostly Cloudy